Location: Newark
(32.8369°N, 35.2736°E)
Time: 02:51:27
(UTC+00:00)

N. Korean satellite - Visible Passes

Search period start: 21 November 2019 00:00
Search period end: 01 December 2019 00:00
Orbit: 456 x 506 km, 97.2° (Epoch: 20 November)

Date Brightness Start Highest point End Pass type
(mag) Time Alt. Az. Time Alt. Az. Time Alt. Az.
21 Nov 6.9 03:47:01 10° N 03:50:32 45° WNW 03:54:00 10° SSW visible
21 Nov 10.1 15:53:07 10° WSW 15:54:40 12° W 15:56:16 10° WNW visible
22 Nov 6.9 03:21:32 10° NNE 03:25:12 73° E 03:28:48 10° S visible
22 Nov 9.1 15:26:03 10° SSW 15:29:09 27° W 15:32:19 10° NW visible
23 Nov 8.7 02:56:32 10° NE 02:59:47 30° E 03:02:57 10° SSE visible
23 Nov 7.2 15:00:06 10° S 15:03:43 64° W 15:07:23 10° NNW visible
24 Nov 10.0 02:32:22 10° ENE 02:34:15 14° E 02:36:08 10° SE visible
25 Nov 6.6 03:38:45 10° N 03:42:21 60° WNW 03:45:52 10° SSW visible
25 Nov 9.9 15:44:05 10° SW 15:46:25 16° W 15:48:45 10° NW visible
26 Nov 7.4 03:13:24 10° NNE 03:16:58 54° E 03:20:28 10° S visible
26 Nov 8.5 15:17:32 10° SSW 15:20:54 35° W 15:24:19 10° NNW visible
27 Nov 9.2 02:48:34 10° NE 02:51:30 23° E 02:54:23 10° SSE visible
27 Nov 6.7 14:51:49 10° S 14:55:29 85° W 14:59:12 10° NNW visible
28 Nov 10.2 02:25:21 10° E 02:25:56 10° E 02:26:31 10° ESE visible
29 Nov 6.5 03:30:29 10° N 03:34:06 81° WNW 03:37:38 10° SSW visible
29 Nov 9.6 15:35:19 10° SW 15:38:07 20° W 15:40:56 10° NW visible
30 Nov 8.0 03:05:16 10° NNE 03:08:41 40° E 03:12:01 10° S visible
30 Nov 7.9 15:09:05 10° S 15:12:37 46° W 15:16:13 10° NNW visible
